Time,TemperatureF,DewpointF,PressureIn,WindDirection,WindDirectionDegrees,WindSpeedMPH,WindSpeedGustMPH,Humidity,HourlyPrecipIn,Conditions,Clouds,dailyrainin,SolarRadiationWatts/m^2,SoftwareType,DateUTC
2013-02-08 13:00:00,32.0,23.0,-100.00,SSW,202,13.0,-999.0,67,-99.99,,,-99.99,476.760010,,2013-02-08 18:00:00,
2013-02-08 13:44:00,32.0,23.0,-100.00,SSW,202,13.0,-999.0,67,-99.99,,,-99.99,476.760010,,2013-02-08 18:44:00,
2013-02-08 13:52:00,32.0,23.0,-100.00,SSW,202,13.0,-999.0,67,-99.99,,,-99.99,476.760010,,2013-02-08 18:52:00,
2013-02-08 14:00:00,34.0,22.0,-100.00,SSW,202,13.0,-999.0,63,-99.99,,,-99.99,563.760010,,2013-02-08 19:00:00,
2013-02-08 14:42:00,34.0,22.0,-100.00,SSW,202,13.0,-999.0,63,-99.99,,,-99.99,563.760010,,2013-02-08 19:42:00,
2013-02-08 14:52:00,34.0,22.0,-100.00,SSW,202,13.0,-999.0,63,-99.99,,,-99.99,563.760010,,2013-02-08 19:52:00,
2013-02-08 15:00:00,34.0,23.0,-100.00,SW,225,13.0,-999.0,64,-99.99,,,-99.99,396.720001,,2013-02-08 20:00:00,
2013-02-08 15:42:00,34.0,23.0,-100.00,SW,225,13.0,-999.0,64,-99.99,,,-99.99,396.720001,,2013-02-08 20:42:00,
2013-02-08 15:52:00,34.0,23.0,-100.00,SW,225,13.0,-999.0,64,-99.99,,,-99.99,396.720001,,2013-02-08 20:52:00,
2013-02-08 16:00:00,34.0,23.0,-100.00,SSW,202,12.0,-999.0,62,-99.99,,,-99.99,351.480011,,2013-02-08 21:00:00,
2013-02-08 16:42:00,34.0,23.0,-100.00,SSW,202,12.0,-999.0,62,-99.99,,,-99.99,351.480011,,2013-02-08 21:42:00,
2013-02-08 16:52:00,34.0,23.0,-100.00,SSW,202,12.0,-999.0,62,-99.99,,,-99.99,351.480011,,2013-02-08 21:52:00,
2013-02-08 17:00:00,32.0,21.0,-100.00,SSW,202,12.0,-999.0,64,-99.99,,,-99.99,100.919998,,2013-02-08 22:00:00,
2013-02-08 17:42:00,32.0,21.0,-100.00,SSW,202,12.0,-999.0,64,-99.99,,,-99.99,100.919998,,2013-02-08 22:42:00,
2013-02-08 17:52:00,32.0,21.0,-100.00,SSW,202,12.0,-999.0,64,-99.99,,,-99.99,100.919998,,2013-02-08 22:52:00,
2013-02-08 18:00:00,31.0,21.0,-100.00,SSW,202,10.0,-999.0,66,-99.99,,,-99.99,26.680000,,2013-02-08 23:00:00,
2013-02-08 18:42:00,31.0,21.0,-100.00,SSW,202,10.0,-999.0,66,-99.99,,,-99.99,26.680000,,2013-02-08 23:42:00,
2013-02-08 18:52:00,31.0,21.0,-100.00,SSW,202,10.0,-999.0,66,-99.99,,,-99.99,26.680000,,2013-02-08 23:52:00,
2013-02-08 19:00:00,30.0,20.0,-100.00,SSW,202,11.0,-999.0,66,-99.99,,,-99.99,1.160000,,2013-02-09 00:00:00,
2013-02-08 19:32:00,30.0,20.0,-100.00,SSW,202,11.0,-999.0,66,-99.99,,,-99.99,1.160000,,2013-02-09 00:32:00,
2013-02-08 19:42:00,30.0,20.0,-100.00,SSW,202,11.0,-999.0,66,-99.99,,,-99.99,1.160000,,2013-02-09 00:42:00,
2013-02-08 19:52:00,30.0,20.0,-100.00,SSW,202,11.0,-999.0,66,-99.99,,,-99.99,1.160000,,2013-02-09 00:52:00,
2013-02-08 20:00:00,29.0,20.0,-100.00,SSW,202,8.0,-999.0,68,-99.99,,,-99.99,0.000000,,2013-02-09 01:00:00,
2013-02-08 20:42:00,29.0,20.0,-100.00,SSW,202,8.0,-999.0,68,-99.99,,,-99.99,0.000000,,2013-02-09 01:42:00,
2013-02-08 20:52:00,29.0,20.0,-100.00,SSW,202,8.0,-999.0,68,-99.99,,,-99.99,0.000000,,2013-02-09 01:52:00,
2013-02-08 21:00:00,29.0,20.0,-100.00,SSW,202,6.0,-999.0,68,-99.99,,,-99.99,0.000000,,2013-02-09 02:00:00,
2013-02-08 21:42:00,29.0,20.0,-100.00,SSW,202,6.0,-999.0,68,-99.99,,,-99.99,0.000000,,2013-02-09 02:42:00,
2013-02-08 21:53:00,29.0,20.0,-100.00,SSW,202,6.0,-999.0,68,-99.99,,,-99.99,0.000000,,2013-02-09 02:53:00,
2013-02-08 22:00:00,28.0,20.0,-100.00,SSW,202,3.0,-999.0,70,-99.99,,,-99.99,0.000000,,2013-02-09 03:00:00,
2013-02-08 22:42:00,28.0,20.0,-100.00,SSW,202,3.0,-999.0,70,-99.99,,,-99.99,0.000000,,2013-02-09 03:42:00,
2013-02-08 22:53:00,28.0,20.0,-100.00,SSW,202,3.0,-999.0,70,-99.99,,,-99.99,0.000000,,2013-02-09 03:53:00,
2013-02-08 23:00:00,28.0,21.0,-100.00,WSW,247,2.0,-999.0,75,-99.99,,,-99.99,0.000000,,2013-02-09 04:00:00,
2013-02-08 23:42:00,28.0,21.0,-100.00,WSW,247,2.0,-999.0,75,-99.99,,,-99.99,0.000000,,2013-02-09 04:42:00,
2013-02-08 23:52:00,28.0,21.0,-100.00,WSW,247,2.0,-999.0,75,-99.99,,,-99.99,0.000000,,2013-02-09 04:52:00,